GFSWCAN_sfc_thetae_057.txt.gz
Theta_e
301 300 300 300 300 300 300 301 301 301 301 301 301 301 301 302 302 299 296 299 293 286 291 294 295 291 291 290 285 289 288 287 287 283 283 283 282 285 284 287 286 283 282 283 285 281 279 294 297 291 295 299 299 300
300 300 300 300 300 300 300 300 301 301 301 301 301 301 301 301 301 301 293 299 298 291 291 297 298 299 297 296 292 291 289 288 288 285 285 285 282 283 285 281 289 285 288 286 288 287 294 298 297 297 298 297 299 300
299 300 300 300 301 301 301 301 301 301 302 302 302 302 302 301 301 301 296 298 295 289 290 292 292 298 301 300 301 290 292 294 291 293 287 287 284 286 283 284 287 290 292 289 289 292 293 296 298 296 297 295 295 297
299 300 301 301 301 300 301 301 301 301 302 302 302 302 302 302 301 300 295 298 294 290 286 288 297 296 301 301 300 299 298 299 297 296 289 286 286 289 285 287 287 290 291 290 290 292 295 295 294 293 294 294 293 293
300 301 301 300 300 301 300 300 300 301 301 302 302 302 303 302 302 298 298 297 298 292 285 287 293 296 299 299 299 299 297 297 296 291 288 288 289 290 288 288 287 292 290 289 288 293 292 293 292 291 292 290 289 288
301 300 300 300 300 300 300 300 300 300 300 301 302 302 303 303 302 295 288 296 299 299 289 285 293 292 295 297 296 297 297 296 295 292 290 290 293 292 286 285 290 290 291 291 290 293 293 295 290 289 288 288 286 284
300 300 300 300 300 301 300 300 300 301 301 301 302 302 303 302 297 291 289 295 300 299 289 284 286 293 294 295 296 296 298 296 295 292 291 291 292 294 286 284 285 286 287 289 291 292 292 289 287 287 286 286 284 283
300 300 300 300 300 301 301 300 300 301 301 301 302 302 302 300 299 295 297 299 299 293 290 282 284 289 295 289 287 293 293 294 293 292 291 290 290 288 283 280 282 283 284 288 286 288 290 288 286 284 284 284 281 280
299 299 299 300 300 301 301 301 300 301 301 302 302 300 297 293 289 294 300 300 300 293 284 282 281 282 294 290 290 289 291 285 290 285 288 289 283 282 276 277 278 280 281 282 284 286 286 283 281 281 281 280 278 278
299 298 299 299 299 300 301 301 301 301 300 300 297 291 285 291 300 300 294 289 290 290 287 282 286 284 290 287 285 285 287 285 283 285 285 280 276 277 278 278 279 280 281 282 281 281 281 279 278 278 277 278 277 276
299 298 298 299 300 300 300 300 300 300 300 294 288 287 295 300 293 289 285 282 283 282 285 285 286 286 291 285 285 285 284 284 280 282 283 277 275 276 278 278 279 279 280 280 280 279 279 279 277 276 276 276 275 275
298 297 297 299 300 300 300 300 299 296 294 294 293 294 291 286 285 282 280 283 282 281 284 284 285 287 288 291 286 286 283 284 278 282 277 272 274 276 276 276 277 278 278 278 278 277 277 276 276 276 275 274 273 273
298 297 296 296 297 297 298 300 299 298 295 290 285 280 280 276 272 275 276 278 279 281 284 286 284 285 288 290 286 286 283 276 280 273 271 272 275 276 276 276 275 276 276 276 275 275 275 275 275 274 273 273 273 272
298 297 297 296 295 295 294 296 295 291 287 280 277 269 269 269 272 273 273 274 279 282 283 285 284 284 284 281 281 277 274 275 269 268 268 272 273 274 275 275 274 273 273 273 273 273 272 272 271 272 272 272 271 270
298 298 297 295 295 294 293 292 291 286 282 276 275 268 270 273 275 276 277 278 280 282 284 282 280 281 275 275 274 272 271 265 268 267 269 272 274 274 274 274 274 273 273 272 273 272 271 271 270 270 271 271 271 270
298 296 295 297 293 293 291 289 286 284 280 275 271 269 270 271 271 272 274 275 279 279 281 280 274 271 269 270 269 266 268 266 266 268 271 273 272 273 273 273 273 273 273 273 273 272 272 271 270 270 270 270 269 269
297 293 297 297 294 291 290 285 282 277 274 271 269 270 270 270 270 272 275 276 280 280 274 275 270 269 273 267 265 267 265 266 269 271 272 272 272 272 272 273 273 273 272 272 273 272 272 272 272 270 269 270 270 269
293 294 296 297 291 288 284 282 278 275 270 271 268 270 273 273 273 274 276 278 280 278 277 272 274 267 264 264 264 267 269 270 271 271 271 272 272 272 273 272 272 272 271 271 271 271 271 270 270 269 268 268 268 267
294 293 296 294 290 285 281 279 279 270 271 272 274 275 274 274 276 276 277 278 278 279 276 273 269 267 267 269 268 269 271 271 269 270 270 271 272 271 271 271 270 270 270 270 269 268 268 268 268 268 267 267 266 266
295 294 294 293 290 282 279 277 281 274 271 273 275 273 273 273 274 275 274 276 275 274 270 268 268 270 270 272 273 272 272 272 271 268 268 269 270 270 269 269 268 268 267 267 266 266 266 265 265 265 266 265 264 262
289 289 290 287 284 283 279 278 276 276 276 274 275 275 272 273 271 271 271 273 271 270 268 270 270 271 273 274 275 274 273 273 271 271 268 267 268 268 267 267 266 266 265 264 264 263 264 263 264 263 263 261 260 262
285 290 281 284 280 280 279 281 278 279 277 276 275 274 270 268 267 269 272 268 268 269 271 271 271 272 271 271 272 272 271 271 270 268 268 267 265 265 264 265 264 262 262 262 263 261 262 263 262 262 261 260 260 261
287 285 280 280 275 274 276 283 277 278 272 273 273 269 266 265 269 273 267 269 269 272 272 271 271 271 270 270 270 270 270 268 266 265 265 264 264 263 263 263 263 263 262 262 263 262 261 258 259 259 260 260 260 260
284 276 270 269 273 270 271 269 276 273 272 270 268 265 265 265 269 266 265 267 269 271 271 271 270 269 268 267 266 266 266 266 264 263 265 265 263 263 264 263 263 263 263 263 262 260 259 257 255 259 257 258 256 258
272 268 269 264 268 267 265 263 265 268 264 264 264 262 263 267 263 262 263 266 267 265 265 268 267 266 264 264 265 266 266 267 265 264 264 265 263 263 262 262 262 262 262 261 260 259 258 256 256 258 258 258 259 257
266 267 266 264 264 267 265 261 261 262 262 261 262 263 262 261 259 259 265 263 266 265 262 263 265 265 265 266 265 265 265 267 266 263 264 265 264 261 260 260 261 261 260 260 258 259 258 256 257 257 257 256 252 255
260 262 268 270 269 268 263 263 266 263 259 260 259 257 257 254 255 263 266 265 265 262 265 265 267 266 265 264 264 264 264 264 264 263 263 263 263 263 261 260 259 261 259 258 258 259 259 257 257 256 257 256 255 255
265 264 260 258 260 262 255 256 256 257 262 265 261 254 253 254 260 264 265 265 265 264 263 263 264 264 263 262 262 262 261 261 261 261 262 262 260 258 257 258 259 258 257 256 257 255 257 258 257 256 255 256 257 254
258 258 260 254 256 257 258 256 258 262 264 259 255 256 260 262 262 263 265 266 265 264 261 260 258 258 258 258 256 257 259 260 261 256 256 257 257 260 256 257 257 256 255 258 255 257 258 257 257 257 257 256 256 253
258 258 256 253 254 256 256 259 258 259 262 262 265 265 263 263 264 266 266 264 262 259 256 257 255 259 257 259 258 258 254 253 256 259 258 258 258 256 255 257 257 255 253 256 256 258 256 256 257 255 254 254 253 253
260 257 257 258 258 261 261 257 262 260 257 260 257 257 258 261 263 263 260 258 257 257 258 257 255 253 256 255 257 257 257 255 249 251 253 253 253 255 255 254 252 251 252 254 254 254 254 253 252 253 253 253 252 250
255 253 257 257 258 259 258 253 253 254 254 256 256 253 255 256 255 260 260 260 258 259 254 255 258 259 255 254 252 252 250 255 254 253 253 254 255 253 252 251 249 251 252 252 252 252 252 252 253 252 251 251 250 249
258 261 258 257 256 255 254 256 256 255 254 254 253 249 248 253 255 259 260 258 260 261 258 257 254 252 252 252 255 253 251 253 251 256 252 252 250 252 251 251 251 251 252 252 252 251 251 251 252 251 250 249 249 249

GFSWCAN_sfc_thetae_060.txt.gz
Theta_e
298 299 299 300 300 300 300 301 300 300 301 301 301 301 301 302 302 300 296 299 296 288 290 294 295 291 292 291 287 291 289 289 287 285 285 285 285 288 287 289 287 286 285 285 286 283 281 298 297 291 298 302 302 303
299 299 300 300 300 300 301 301 301 301 301 301 301 301 301 302 302 301 292 300 301 292 290 298 298 299 297 296 293 293 291 292 292 288 289 289 287 290 288 284 293 287 290 288 290 289 299 302 300 301 302 300 300 300
299 299 299 299 300 300 300 301 301 301 301 301 301 302 301 302 302 301 296 296 295 289 289 292 293 299 303 301 303 291 294 295 295 298 293 291 287 291 286 287 290 293 296 293 292 295 297 300 301 301 301 299 299 298
299 299 299 300 300 301 301 301 301 301 301 301 302 302 302 302 302 302 295 298 295 291 285 289 299 297 303 303 301 301 298 299 298 298 292 291 288 294 290 291 291 294 295 292 292 295 298 298 298 299 299 299 297 297
299 299 300 301 301 301 301 301 301 301 301 302 302 303 302 302 302 300 298 299 298 294 287 289 295 297 301 300 299 299 298 296 295 292 291 290 295 294 296 295 291 296 292 291 290 296 296 296 296 296 297 295 294 292
300 300 300 300 300 301 301 300 301 301 301 301 302 303 303 302 301 296 287 297 299 301 291 286 297 295 298 299 298 297 297 296 295 292 293 296 297 295 290 289 294 295 295 296 295 297 297 297 295 294 293 290 290 289
300 300 300 300 300 301 301 300 300 300 301 301 302 302 302 301 297 293 292 296 301 302 290 287 289 295 297 297 297 296 298 296 294 292 291 293 296 296 292 288 292 290 291 292 294 294 294 294 292 291 290 288 287 287
300 300 300 300 300 301 301 301 300 301 301 301 301 301 302 299 299 296 300 300 301 294 293 286 286 291 297 291 290 296 293 295 293 292 294 293 295 293 287 285 286 287 288 290 288 289 289 289 286 285 285 285 283 281
299 299 299 300 300 301 300 300 300 301 301 301 302 301 295 292 291 296 300 301 302 295 288 288 285 284 296 291 291 290 293 287 292 288 290 293 290 286 279 281 282 282 283 284 287 288 285 282 281 281 281 281 279 277
298 299 299 300 300 300 300 301 301 299 299 299 297 290 285 291 300 300 295 288 290 292 294 289 293 287 292 290 289 288 287 286 285 288 287 288 281 279 280 280 280 281 282 284 284 283 283 280 279 279 279 279 279 276
298 299 300 300 300 300 300 300 300 300 300 295 290 288 296 300 294 289 285 287 286 284 290 291 291 287 291 287 287 289 286 287 284 285 287 283 280 278 280 279 280 281 281 281 282 282 281 281 280 278 278 278 277 276
298 298 297 298 299 300 300 300 300 300 298 296 293 294 291 289 288 285 283 284 285 283 287 286 289 290 288 294 288 287 285 287 281 286 285 281 276 278 278 277 278 280 280 280 281 279 279 279 278 277 276 275 274 273
296 297 297 296 297 299 299 299 299 298 298 295 290 285 287 282 279 281 278 282 282 285 287 287 286 288 291 294 289 287 284 280 285 283 280 276 277 277 278 278 277 278 278 278 277 277 277 276 276 275 273 273 273 272
297 296 296 296 295 296 296 294 294 294 292 284 282 275 278 276 277 278 280 281 283 285 286 287 286 286 287 286 284 282 279 283 278 277 275 275 276 276 277 277 276 275 275 275 275 274 274 273 273 273 273 273 272 271
298 298 295 295 295 293 293 292 290 289 285 278 279 273 274 277 279 279 281 282 283 285 287 286 286 287 283 281 281 280 277 276 276 276 275 276 276 276 276 276 275 274 274 274 274 273 272 272 271 271 272 272 272 271
298 297 296 293 293 292 291 290 289 288 282 278 276 274 277 278 277 279 280 281 283 284 288 288 282 280 277 279 277 273 278 275 273 275 276 276 275 275 275 275 275 275 275 274 274 273 273 272 271 271 272 271 271 271
297 295 297 294 291 291 290 287 284 279 277 275 274 277 277 277 276 277 279 280 284 285 282 283 278 274 279 275 271 274 273 273 274 275 277 276 275 274 274 275 274 275 274 274 274 274 273 274 274 273 271 272 272 271
295 297 296 296 293 289 286 284 280 277 273 275 274 275 277 277 277 278 280 281 283 283 282 276 279 274 272 270 272 272 273 276 276 276 275 275 275 275 276 275 274 275 274 274 274 274 274 273 272 272 271 271 270 270
294 296 294 293 293 288 282 281 281 273 274 276 277 277 277 277 278 279 280 281 282 283 281 278 274 272 272 273 273 273 274 275 273 273 274 274 274 273 273 273 273 273 273 272 272 272 272 272 272 272 272 272 271 271
294 294 293 293 293 285 279 278 283 276 274 275 277 275 275 275 277 277 277 278 278 276 272 271 271 273 273 275 276 275 275 275 274 272 271 272 273 273 273 273 272 272 271 271 271 271 271 271 271 271 271 271 270 269
294 293 292 292 289 286 282 280 278 278 278 275 277 276 274 275 274 273 273 276 273 272 271 273 273 275 276 277 277 276 276 276 275 275 273 271 272 272 272 272 272 272 272 271 270 269 269 269 269 270 269 268 268 269
292 291 291 290 285 284 282 283 280 281 278 277 276 276 274 273 273 273 275 272 270 271 273 274 275 275 274 274 274 275 274 273 273 272 271 272 271 271 270 271 271 269 270 270 270 269 269 269 269 269 268 267 268 268
290 290 287 286 281 281 279 285 280 280 275 275 276 272 272 273 274 276 271 271 272 274 274 274 273 274 272 273 272 272 273 272 271 271 271 270 270 270 270 270 270 269 268 268 269 269 267 264 265 268 267 268 268 268
286 279 277 279 282 276 280 278 280 277 277 275 273 270 271 273 275 272 269 271 272 274 273 273 273 272 272 271 271 270 271 272 271 271 271 270 269 269 270 269 269 269 269 269 268 267 267 266 263 267 266 267 266 266
278 272 276 274 277 276 275 274 274 275 272 273 271 271 271 275 271 269 268 270 272 272 272 273 273 273 271 271 271 270 271 273 271 269 270 271 270 269 268 268 268 268 269 269 267 267 266 266 266 266 266 266 264 262
270 270 272 273 275 275 274 272 272 272 272 270 269 271 273 271 268 267 270 272 272 272 272 273 273 272 271 272 270 270 270 272 272 270 269 270 270 270 269 268 268 267 268 269 268 267 266 265 265 262 264 261 259 261
268 269 271 271 273 274 273 273 274 273 270 269 270 268 269 264 264 267 271 272 273 272 273 274 275 273 271 270 270 270 270 270 270 269 269 269 268 269 269 268 264 266 267 266 267 266 265 264 264 263 263 264 264 262
268 268 266 265 266 268 265 266 266 266 268 269 270 263 263 264 265 269 270 271 272 271 270 270 271 272 271 269 269 268 268 267 267 267 267 267 267 267 265 266 266 263 265 265 266 265 265 264 264 263 263 263 262 263
266 267 267 260 263 264 263 263 265 266 267 269 266 264 264 266 267 269 270 270 272 271 269 268 266 268 267 266 267 269 269 269 266 262 262 266 266 266 266 266 266 266 266 266 261 263 263 264 263 263 263 262 262 261
265 268 263 262 260 261 264 265 266 266 268 269 268 267 267 266 267 271 271 271 270 269 269 268 267 270 268 268 266 265 265 265 265 266 266 265 265 265 265 265 265 264 264 264 264 263 261 263 262 262 261 261 262 261
268 267 264 264 263 265 266 269 269 269 268 267 269 266 265 266 268 267 266 266 266 266 268 266 265 266 266 266 268 267 265 263 260 261 263 263 263 264 263 262 262 262 262 262 262 262 261 261 262 260 260 259 258 257
266 264 263 262 264 267 267 268 268 267 268 268 266 268 267 268 265 267 266 267 268 268 263 267 267 266 265 265 263 263 260 263 262 262 262 263 263 261 262 261 260 262 261 261 261 260 259 258 259 259 259 258 257 256
267 267 267 266 265 265 266 267 267 266 267 266 264 263 263 265 263 265 266 265 267 268 267 266 265 264 263 263 264 262 262 262 259 260 258 257 256 259 262 262 261 260 259 260 260 259 258 258 258 258 257 256 256 256

GFSWCAN_sfc_thetae_063.txt.gz
Theta_e
298 298 298 298 299 300 300 301 301 301 301 301 300 300 300 301 301 299 296 299 294 289 291 294 295 293 293 293 288 291 290 290 288 285 285 286 286 288 288 290 288 286 285 285 287 284 281 299 297 293 299 303 302 303
298 298 298 299 299 300 300 301 301 301 301 301 301 301 301 301 301 301 294 298 299 291 293 298 298 299 298 297 293 291 291 291 293 290 290 290 287 290 289 285 294 286 290 289 289 289 300 303 302 304 304 302 302 302
298 298 299 299 300 300 300 300 300 301 301 301 301 301 301 301 302 301 297 296 294 289 291 292 294 299 301 301 303 291 293 295 296 299 294 292 287 291 287 288 291 294 297 293 293 297 299 302 303 303 303 302 302 302
298 298 299 299 300 300 301 301 301 301 301 301 301 301 301 301 302 302 296 297 294 291 286 291 299 296 301 302 302 301 298 300 300 297 294 292 289 295 291 292 292 294 297 294 294 297 300 300 301 301 302 302 300 300
298 299 299 300 301 301 301 301 301 301 301 302 302 302 302 302 302 301 298 298 299 293 288 288 297 299 300 299 300 299 298 295 294 292 292 289 294 294 295 295 292 297 294 292 292 299 299 297 300 299 299 297 296 296
299 299 300 300 300 301 301 301 301 301 301 302 302 303 303 303 301 296 287 297 301 300 292 287 296 296 299 299 298 298 297 296 294 290 292 295 298 294 290 289 295 299 299 299 297 299 300 299 298 297 296 294 293 292
299 300 300 300 300 301 301 301 301 301 301 301 302 302 302 302 299 292 292 297 300 302 290 287 290 295 298 298 296 296 297 295 295 291 291 294 295 296 292 289 293 294 295 297 295 296 296 293 288 290 292 291 290 289
300 300 300 300 300 300 300 301 300 301 301 301 302 302 302 300 299 296 300 301 301 294 293 287 288 291 297 291 290 297 292 293 292 292 295 293 295 295 289 290 291 291 292 292 291 292 292 290 287 286 287 286 284 283
299 299 299 300 300 300 301 300 300 301 301 301 301 301 294 293 292 297 300 301 302 295 289 290 286 285 297 292 292 293 293 286 294 289 292 294 292 287 282 285 285 285 285 286 290 289 288 285 283 283 283 282 281 280
299 299 300 300 300 300 301 300 300 301 301 301 297 289 285 291 300 300 294 288 290 292 294 290 295 286 293 291 290 290 293 290 284 288 291 288 283 283 284 284 283 283 284 285 286 284 285 284 284 283 281 281 281 280
299 299 299 300 300 300 300 300 300 300 299 294 288 288 295 300 296 292 286 288 289 286 292 292 293 288 295 289 288 292 287 288 284 286 287 287 280 281 282 282 283 284 283 283 283 283 284 283 281 280 279 279 279 278
297 297 298 300 300 300 299 299 300 300 298 295 294 295 294 291 290 287 285 287 287 285 289 289 291 293 292 294 291 289 286 288 283 289 286 282 278 280 280 280 280 281 282 281 282 281 281 280 280 279 277 276 275 275
297 297 297 298 299 300 299 299 299 299 300 297 292 286 288 286 282 283 279 282 284 288 290 290 287 289 291 291 289 288 284 283 290 284 281 277 279 279 279 279 279 280 280 279 278 279 278 277 277 276 274 274 274 273
296 296 296 296 296 295 295 294 296 296 296 289 286 277 282 280 280 281 282 284 284 286 287 291 286 287 286 286 288 283 282 285 281 279 276 278 277 277 278 278 278 276 277 276 276 276 275 274 274 274 274 274 273 271
297 295 295 294 294 293 293 293 294 293 288 282 283 276 277 280 281 282 284 285 285 287 288 290 289 290 286 283 285 283 279 278 279 277 277 277 278 277 277 277 276 276 275 275 276 275 274 274 273 273 274 274 274 273
298 298 293 294 293 292 293 293 291 289 284 280 279 278 281 282 281 283 284 284 286 287 290 292 286 283 281 283 281 276 281 278 276 277 278 278 277 277 277 277 277 277 276 276 275 275 274 274 273 273 273 273 273 272
298 296 293 292 291 291 292 291 288 282 280 278 277 280 281 280 280 281 283 283 287 287 284 288 282 278 284 280 276 277 276 276 277 277 278 278 277 276 276 276 276 277 276 276 276 276 275 276 276 275 273 273 273 271
296 297 295 292 294 291 288 288 284 281 276 279 277 278 279 280 281 281 283 285 287 287 286 279 285 279 277 274 276 275 276 278 278 277 277 277 277 278 278 277 277 277 277 276 276 276 276 275 274 274 273 273 272 272
297 297 295 296 294 288 283 283 284 276 277 279 280 280 280 280 281 282 283 283 286 287 285 282 277 276 275 277 275 276 276 277 275 276 276 277 277 276 276 276 276 276 275 276 276 275 275 275 275 275 275 275 274 274
294 294 294 293 293 286 280 281 286 279 277 278 280 278 279 279 281 281 281 282 282 280 276 274 274 276 276 278 279 278 278 278 277 275 274 276 277 277 277 276 275 275 275 274 274 274 274 274 274 274 274 274 274 272
294 293 292 294 290 287 284 282 280 280 280 277 279 279 277 279 278 278 278 280 277 275 274 276 276 278 279 279 280 279 279 279 278 278 276 274 276 276 275 275 276 276 276 275 274 273 273 273 273 273 273 272 272 272
294 292 293 292 286 285 282 284 281 282 280 278 278 279 277 276 276 276 278 275 273 274 277 277 277 277 277 276 277 277 277 276 276 275 275 276 275 275 275 275 275 274 274 274 274 273 273 272 273 272 271 271 271 271
291 293 291 288 284 282 279 286 280 281 277 276 279 276 276 276 276 280 273 274 274 277 277 276 276 276 275 275 275 276 276 276 275 275 275 274 274 275 274 274 274 273 272 272 273 273 271 267 269 271 270 271 272 270
289 283 282 283 283 278 283 280 282 280 279 278 276 273 274 276 279 275 271 272 274 277 275 275 276 275 275 275 274 274 275 276 275 275 275 275 273 273 274 273 273 273 272 272 272 271 271 270 266 270 270 269 269 268
281 275 280 277 282 280 278 277 277 278 275 276 274 274 275 279 274 272 271 272 274 275 275 277 277 277 275 274 274 274 275 276 275 273 274 274 273 273 272 272 272 271 273 273 271 271 269 269 269 269 269 268 267 266
273 274 276 277 278 278 279 276 276 276 276 274 273 276 279 277 272 271 273 274 275 275 276 276 277 276 275 276 274 273 273 276 276 273 272 273 273 273 272 271 271 270 271 271 271 270 269 268 268 265 266 266 262 263
272 272 274 276 277 279 278 279 280 277 274 272 275 274 274 270 269 270 274 277 275 276 277 278 278 277 275 273 274 274 274 273 273 272 272 272 271 271 272 270 267 269 270 269 270 269 268 267 267 266 266 267 267 266
272 272 269 270 271 274 271 272 272 271 272 274 275 268 268 269 269 273 274 275 276 276 276 276 277 276 275 274 273 272 271 271 271 271 271 271 271 270 269 269 268 265 268 267 268 267 267 267 266 266 266 265 265 266
270 272 270 264 268 269 268 269 269 270 270 274 271 269 267 269 273 272 273 275 276 275 273 272 271 273 272 273 273 273 273 273 269 265 264 269 270 269 270 269 269 269 269 268 264 265 266 266 266 265 265 265 266 266
268 273 268 266 265 265 267 270 268 272 272 272 271 269 268 269 272 275 275 275 274 273 273 273 274 274 271 271 269 269 270 270 268 269 268 268 268 268 269 269 268 268 267 267 266 266 265 266 266 265 264 265 265 265
273 273 269 268 266 268 270 271 272 273 273 272 273 270 268 269 270 271 272 273 273 273 272 271 270 271 270 270 271 270 268 267 264 265 267 268 268 268 267 265 266 266 266 265 265 265 264 263 265 264 263 263 262 261
272 269 267 265 266 270 273 272 272 271 271 271 270 272 272 271 268 270 270 273 273 271 268 271 270 269 269 268 268 267 266 266 266 265 265 266 266 265 266 266 265 265 264 264 264 263 263 262 262 263 262 262 261 260
271 271 270 269 268 269 270 273 271 270 271 270 269 269 269 270 266 268 270 270 270 271 271 269 269 268 267 267 267 266 266 265 262 262 262 261 260 261 264 266 265 264 263 263 263 263 262 261 261 261 261 260 260 260

GFSWCAN_sfc_thetae_069.txt.gz
Theta_e
297 297 297 297 298 298 298 299 299 299 300 300 301 301 301 299 299 296 291 295 289 282 286 288 289 285 287 287 284 289 288 289 286 276 279 279 277 283 282 286 286 283 280 280 282 278 277 298 298 291 295 299 298 298
296 297 297 297 298 298 299 299 299 299 299 300 301 301 301 300 300 299 288 295 295 289 286 293 293 294 292 292 289 290 289 288 289 283 282 283 280 282 284 280 291 283 285 282 284 283 296 299 298 301 300 297 296 295
295 297 297 298 298 298 298 299 299 299 300 300 301 301 301 300 300 298 291 292 291 288 286 287 286 292 296 295 298 287 289 292 292 293 288 286 281 286 280 282 286 290 294 288 289 290 295 298 299 298 297 295 295 294
296 297 298 298 298 298 299 299 300 300 300 300 301 301 301 300 301 300 294 294 292 289 280 282 295 291 296 295 295 295 294 295 295 293 287 287 284 291 283 288 287 289 291 290 291 294 295 296 295 294 294 296 294 292
297 297 297 298 298 299 299 299 300 300 301 301 302 302 302 301 301 299 297 296 295 288 280 285 292 295 297 295 293 294 294 292 289 287 286 286 289 290 290 291 288 290 290 287 287 292 290 291 293 294 292 290 290 289
297 297 298 298 299 299 299 300 301 301 301 301 302 302 302 302 301 296 289 296 298 294 287 280 291 293 295 294 293 292 292 291 293 289 288 290 296 290 285 285 288 289 290 293 291 292 291 291 292 291 288 287 286 286
297 298 298 299 299 300 301 301 301 301 301 301 302 302 302 302 299 290 288 294 299 297 287 283 282 292 295 293 290 290 291 291 290 290 288 287 289 292 286 283 286 288 291 290 292 292 287 288 287 289 287 286 285 283
298 298 299 299 300 300 300 300 300 301 301 301 302 302 302 301 299 293 298 299 299 293 290 282 281 287 295 289 288 291 289 291 291 290 290 288 290 290 284 284 284 285 288 289 288 289 287 287 286 285 285 283 280 279
298 299 299 300 300 300 300 300 300 301 301 301 301 300 295 293 290 294 300 300 299 292 284 284 280 282 294 290 290 290 291 284 291 285 287 288 285 279 280 281 281 282 282 283 287 286 284 283 282 282 281 279 277 276
298 299 299 299 300 300 300 300 301 301 301 299 295 289 284 292 301 299 293 287 290 290 289 284 289 284 290 288 285 286 286 285 283 285 289 284 278 281 282 282 282 282 283 283 283 281 282 280 280 280 279 279 278 277
300 300 300 300 300 300 300 300 300 300 300 294 287 286 295 300 293 289 283 284 285 283 285 287 288 286 292 284 285 286 284 285 281 283 284 282 278 278 280 280 281 282 282 282 281 281 281 281 278 277 276 276 275 274
300 300 300 300 300 300 300 299 300 298 296 293 294 296 294 290 288 284 282 284 282 281 285 283 286 290 290 294 286 286 282 284 279 287 280 273 276 278 278 278 279 280 279 278 279 277 277 277 276 274 273 273 272 272
299 299 299 300 300 300 300 300 299 299 299 295 290 286 287 285 280 275 277 277 279 284 286 286 286 286 289 291 285 284 281 280 286 283 275 274 277 278 277 277 277 277 276 275 274 274 274 273 274 273 272 272 272 271
297 297 297 299 300 299 299 298 298 297 294 286 284 274 279 279 279 278 280 282 284 285 286 286 285 285 285 284 285 281 281 282 277 274 272 274 274 274 275 275 273 272 272 272 271 271 271 270 270 270 270 269 268 267
295 296 297 299 298 297 296 296 296 292 287 281 280 274 275 279 279 282 284 284 284 286 286 283 284 286 284 280 281 280 276 277 273 269 271 272 273 273 272 272 272 272 271 271 271 271 270 270 270 270 269 267 267 267
295 294 293 296 296 295 294 294 291 289 284 280 278 278 280 278 280 282 283 282 285 285 287 283 281 280 276 276 277 274 276 270 269 271 274 274 273 271 271 273 273 273 271 271 272 272 271 270 269 270 270 269 268 269
298 292 293 295 295 295 295 289 285 282 279 277 274 277 279 276 279 280 282 282 286 285 284 284 277 275 282 277 274 274 269 271 273 274 275 272 271 272 273 273 272 272 272 272 273 273 272 272 272 272 270 270 271 269
293 291 294 294 295 292 289 288 283 280 277 277 275 276 273 277 277 280 283 282 284 283 282 278 282 274 271 273 270 272 273 274 275 273 273 273 273 272 273 271 273 274 275 275 275 275 275 274 273 272 272 272 271 271
291 291 294 295 293 288 283 283 284 276 277 277 279 278 277 279 281 281 281 282 281 280 280 278 271 271 271 273 272 273 273 272 273 273 274 274 275 275 275 276 276 275 275 276 275 273 273 273 272 272 272 272 270 270
296 295 294 295 293 285 281 281 285 279 276 276 278 276 276 278 280 279 278 280 280 278 274 272 272 274 273 276 275 274 273 274 273 271 272 273 275 276 275 275 274 275 274 274 273 271 272 270 270 269 268 269 268 266
292 291 294 293 288 287 283 281 279 279 279 277 280 278 277 278 276 274 274 278 275 272 271 273 273 275 276 276 276 275 275 275 274 274 273 272 274 275 275 275 275 275 273 270 268 267 267 265 266 268 264 259 258 259
290 293 290 290 284 283 281 282 280 281 279 278 278 279 276 272 271 272 275 271 270 273 274 274 275 275 275 275 276 277 277 277 276 276 276 275 273 273 272 271 270 267 266 265 269 266 264 265 265 266 260 257 265 260
293 293 288 285 280 278 276 284 279 279 273 275 277 275 273 271 273 278 270 271 271 274 274 274 275 276 275 276 277 277 277 276 273 273 272 271 270 267 269 269 268 265 266 267 269 266 261 261 261 258 258 260 261 261
289 283 282 280 279 275 280 278 280 278 276 275 273 272 273 270 275 270 268 271 271 274 274 275 275 274 275 274 272 272 273 273 270 267 269 270 269 268 269 268 267 266 266 267 266 262 261 257 258 264 259 255 260 256
279 275 278 276 280 275 273 274 276 275 270 271 270 269 270 276 269 267 267 271 273 272 272 274 276 274 270 266 267 269 272 273 270 269 266 269 266 267 267 268 266 266 267 267 264 261 257 256 256 256 257 254 256 254
269 271 273 275 276 277 275 271 274 273 271 271 270 274 276 272 266 266 270 271 269 269 274 272 271 271 271 271 269 269 269 272 271 266 268 269 268 264 262 265 264 262 264 259 258 259 262 259 255 256 255 257 259 255
268 271 274 278 277 278 275 276 276 272 271 271 271 269 269 263 262 269 274 272 274 275 276 276 275 272 270 269 269 269 269 269 268 268 268 268 268 266 262 260 259 262 261 261 259 255 255 255 256 256 255 255 258 259
271 272 266 271 269 271 267 266 266 267 267 271 270 262 262 262 266 272 274 274 273 273 272 273 273 272 270 269 267 265 263 263 265 266 266 265 263 260 259 258 258 264 258 256 255 255 255 254 253 254 256 255 254 255
269 269 268 262 265 265 265 265 265 267 270 270 262 261 262 269 272 272 272 272 273 271 269 268 268 270 269 269 268 266 265 264 260 258 256 260 259 258 258 258 258 257 256 258 262 260 259 256 255 254 254 253 253 253
269 271 265 262 260 262 264 271 268 267 268 267 269 270 269 270 273 272 273 273 271 268 265 264 265 265 262 262 258 259 260 259 257 258 258 258 258 257 258 257 256 256 255 255 255 256 262 258 257 256 257 257 255 254
274 270 266 265 264 268 270 271 270 269 268 267 266 265 262 266 267 269 269 270 270 270 268 268 267 267 264 262 260 259 256 257 255 256 257 256 258 255 254 254 254 254 256 254 253 253 252 251 251 251 251 252 251 250
271 266 263 262 265 271 272 265 266 267 266 266 264 261 264 265 261 264 268 269 270 267 268 266 262 260 258 258 259 261 260 257 257 255 256 258 255 254 255 257 255 254 253 253 253 253 253 251 250 250 249 250 250 250
268 268 267 265 263 264 268 266 267 267 269 266 266 267 264 262 259 262 267 269 269 266 265 264 262 261 261 260 260 259 257 253 255 260 257 256 254 254 252 252 251 251 251 251 251 251 252 252 251 250 250 249 249 248

GFSWCAN_sfc_thetae_072.txt.gz
Theta_e
297 296 298 298 298 297 297 297 297 298 298 299 299 299 300 301 301 296 292 293 289 284 285 287 287 283 283 284 280 286 285 288 285 277 278 278 276 281 281 283 283 281 280 277 278 276 275 294 297 289 295 298 299 298
296 296 297 297 297 296 297 297 298 299 299 299 299 300 300 300 301 298 290 293 293 288 283 291 291 291 289 289 286 288 286 286 289 284 281 281 277 277 282 278 290 281 286 282 282 281 293 297 297 299 298 294 295 295
295 295 296 297 297 297 298 298 299 299 299 299 299 300 300 301 301 298 292 289 289 287 284 284 284 289 293 293 295 284 288 290 287 290 286 286 280 283 279 281 284 290 293 288 288 289 292 294 295 295 294 292 293 293
295 296 296 296 297 298 298 298 299 299 299 300 300 301 301 301 301 299 292 290 288 288 278 280 291 288 293 292 293 293 292 294 293 293 285 283 283 288 282 287 283 288 289 289 289 291 290 291 292 292 292 290 289 289
296 296 296 297 297 298 298 299 299 299 300 300 301 301 301 301 302 299 296 294 292 284 279 283 289 292 294 292 291 292 292 291 289 287 282 284 289 287 289 289 285 287 285 285 285 288 289 290 290 290 288 287 287 284
296 297 297 297 298 298 299 299 299 300 300 301 301 302 302 302 301 296 286 294 296 291 286 275 287 290 292 292 291 289 290 290 292 287 287 289 293 288 284 284 286 286 286 293 287 289 287 288 288 288 285 284 284 282
296 296 297 297 298 298 299 299 300 300 301 301 302 302 302 302 298 290 287 291 297 296 287 280 278 288 293 291 288 288 290 289 290 289 287 287 287 291 286 280 283 286 287 288 291 289 284 286 284 285 283 282 283 281
296 297 297 298 298 299 300 300 300 301 301 301 302 302 302 301 299 293 296 299 298 291 289 280 277 284 293 287 287 288 288 290 288 288 290 287 290 289 280 282 283 284 286 287 286 287 285 285 283 282 281 280 278 278
296 297 298 299 299 300 300 300 300 301 301 301 301 302 298 291 287 293 300 299 297 290 282 283 278 278 292 289 290 289 288 283 290 286 283 285 283 277 279 280 281 282 281 282 286 284 283 282 280 280 279 278 276 275
297 298 299 299 300 300 300 300 300 301 301 301 296 289 284 291 300 299 294 287 289 290 290 284 286 282 289 287 285 285 286 282 281 285 289 284 276 280 280 281 281 282 282 284 283 281 281 280 280 279 279 278 277 276
297 300 300 300 300 300 300 300 301 301 299 293 287 286 294 299 293 288 283 283 284 282 285 284 285 285 291 285 284 286 284 285 280 282 283 280 276 277 279 279 280 281 281 280 280 281 281 280 277 276 275 275 275 274
300 300 300 300 300 300 300 300 300 297 295 293 294 295 294 288 286 283 281 283 281 279 281 281 286 288 290 293 286 286 282 283 277 286 283 271 274 277 277 277 278 278 277 277 278 277 277 276 275 274 273 272 271 271
299 300 300 300 300 300 300 299 299 299 298 294 290 286 286 284 279 273 275 278 273 282 285 287 285 287 288 288 285 284 281 278 286 282 273 273 276 277 276 275 275 275 275 274 273 274 273 273 273 272 270 270 270 269
298 300 300 299 298 299 299 299 299 297 293 286 282 274 274 278 278 278 277 279 283 285 285 285 284 285 285 284 284 280 281 278 278 272 271 271 273 273 273 273 271 269 270 270 269 269 269 268 267 267 266 266 265 264
298 298 298 297 296 296 296 296 295 291 285 279 277 269 269 275 276 282 284 283 284 286 285 281 283 283 282 281 280 278 275 272 271 268 267 270 272 270 269 269 268 267 266 267 266 268 267 267 268 267 266 266 266 264
297 295 294 296 296 295 295 293 290 288 281 278 276 275 278 276 278 281 282 282 285 285 285 281 278 275 276 280 276 271 274 270 267 267 271 272 268 265 267 269 267 267 268 268 269 269 268 266 266 266 267 266 266 265
295 289 294 295 295 295 295 288 284 281 278 275 272 271 271 267 277 279 281 282 286 285 283 283 275 273 278 273 269 270 265 267 269 270 270 265 268 269 268 269 269 270 269 269 270 270 269 269 269 270 268 269 270 268
287 291 295 294 294 291 288 285 281 279 275 275 271 272 267 271 276 279 279 282 284 280 279 278 278 270 264 267 265 266 268 270 269 270 269 266 265 266 270 270 272 273 273 273 273 272 272 272 272 270 271 271 270 270
289 290 294 295 293 286 282 282 281 274 274 272 274 274 271 274 276 276 277 277 278 279 279 277 269 267 267 267 268 266 263 266 270 268 271 271 272 273 274 274 274 274 274 275 274 272 272 272 271 270 271 271 268 268
295 295 295 294 292 283 281 281 284 277 273 274 276 275 274 275 275 273 276 278 278 277 273 270 268 268 267 267 267 269 269 272 272 271 271 273 274 275 274 274 273 274 274 272 271 270 270 269 269 268 268 268 266 264
291 291 293 291 287 285 281 280 278 278 278 276 277 276 273 276 273 272 273 277 274 272 268 269 269 273 275 274 275 274 273 274 271 270 272 271 274 275 274 274 274 273 270 266 266 265 266 264 265 265 260 255 255 258
288 293 286 288 282 281 280 281 279 279 278 278 277 278 272 268 268 270 274 270 268 269 270 272 272 274 274 274 275 277 277 276 276 275 274 273 269 269 269 268 269 265 265 264 265 261 260 263 263 260 256 255 257 258
293 291 285 283 277 274 275 282 275 278 272 274 276 273 270 268 272 276 268 270 269 273 273 273 275 276 275 276 276 276 276 275 272 271 270 269 268 266 267 266 265 264 264 264 266 262 259 260 258 256 254 257 256 256
288 282 279 276 275 271 277 274 278 276 276 274 272 270 270 270 275 268 266 269 269 272 273 273 274 273 273 273 270 270 271 271 269 266 268 269 266 264 266 265 265 264 264 266 264 259 258 254 255 258 252 252 251 252
277 273 275 272 274 269 269 271 271 271 268 268 267 266 269 274 265 262 263 266 270 268 271 273 272 271 266 263 266 268 269 271 269 267 265 267 264 266 265 265 264 264 263 261 257 256 254 251 251 252 253 250 253 252
269 270 272 271 273 271 272 268 265 266 266 265 266 271 273 264 260 262 267 263 267 267 271 271 270 269 269 269 267 267 267 270 269 265 266 268 266 262 260 259 258 259 260 254 254 254 257 255 252 253 252 253 254 251
263 264 272 276 274 276 273 270 272 268 265 265 265 264 262 257 257 267 270 267 270 272 273 272 272 269 267 267 267 267 267 268 267 266 266 266 265 263 261 259 257 260 257 255 252 252 252 252 252 251 251 250 254 255
267 267 263 264 263 266 260 259 259 261 263 269 267 259 258 258 263 269 268 270 270 271 271 270 270 269 267 266 263 264 262 263 264 264 264 263 260 257 256 255 255 262 253 251 251 249 250 250 250 250 250 250 250 249
263 264 265 258 260 261 263 260 261 266 268 266 257 257 260 267 267 269 270 270 270 270 267 266 266 266 264 263 261 261 259 258 258 256 254 253 253 257 253 254 254 252 250 254 259 258 258 254 253 251 251 252 251 248
264 264 261 256 257 259 261 263 260 263 267 264 267 269 267 267 270 272 270 268 266 265 262 266 261 262 257 258 252 255 255 250 251 256 255 253 255 256 252 251 251 250 249 250 250 252 257 251 254 251 251 251 250 249
267 263 262 261 262 262 262 267 267 266 261 262 260 261 260 266 268 268 268 266 266 266 265 264 262 256 258 253 251 252 252 254 251 254 256 254 250 249 249 249 249 249 249 248 248 248 249 248 246 246 247 247 247 246
262 259 261 261 263 265 259 258 259 258 256 257 259 257 262 260 258 263 268 266 266 264 257 259 260 257 253 253 254 255 255 252 250 251 251 249 248 247 251 253 249 248 248 248 247 247 247 248 247 247 246 247 247 247
263 264 263 261 261 261 265 261 261 263 262 263 264 263 259 256 257 261 265 265 261 263 259 256 257 257 258 258 257 253 252 250 251 258 254 253 251 251 247 246 245 246 247 247 246 246 247 248 247 247 246 245 245 244

GFSWCAN_sfc_thetae_075.txt.gz
Theta_e
295 295 296 298 298 298 297 297 297 297 297 298 298 299 299 299 299 298 289 295 289 283 282 287 288 283 284 283 281 285 284 285 285 279 279 279 277 280 280 282 282 281 279 275 277 277 274 293 294 287 291 297 296 296
295 296 297 297 297 296 296 296 297 298 298 298 298 298 299 299 300 299 290 295 294 285 282 289 290 291 289 288 285 286 284 286 285 282 283 283 276 276 280 276 287 275 283 282 281 281 291 292 293 294 296 294 293 292
296 297 297 296 296 296 296 296 297 298 299 299 299 299 299 300 300 298 292 293 291 286 285 282 284 289 292 291 292 285 288 290 287 290 287 285 280 280 275 278 281 287 290 286 287 289 289 290 290 290 293 293 293 293
296 295 296 296 296 296 296 297 298 298 299 299 299 299 299 300 301 300 292 293 288 285 278 279 289 287 291 291 290 292 291 293 292 291 287 282 281 286 281 286 286 286 285 286 287 289 289 288 289 288 287 288 287 286
295 295 296 296 296 296 297 298 298 298 299 299 300 300 301 301 301 299 295 294 290 283 276 280 286 290 292 290 288 290 290 289 288 286 285 280 286 287 287 288 284 286 283 281 283 290 289 286 287 287 285 284 284 282
295 296 296 296 296 297 297 298 298 299 299 300 300 301 302 302 301 293 285 293 294 289 283 275 284 287 290 290 288 289 290 288 288 288 283 288 292 288 283 282 285 285 285 288 286 287 285 286 286 286 283 282 282 280
295 295 296 296 297 297 298 298 299 299 300 300 301 301 302 302 295 290 287 291 296 294 286 279 278 285 291 289 286 286 288 289 288 288 287 285 287 290 285 280 282 285 286 286 288 289 284 285 280 282 281 280 281 279
295 295 296 296 297 298 298 298 299 300 300 301 301 301 302 301 298 292 296 298 296 290 287 278 278 280 290 283 282 286 284 286 288 285 288 287 289 289 279 282 282 283 286 286 285 284 282 282 281 280 280 279 277 276
296 296 296 296 297 298 298 299 300 301 301 301 301 302 299 291 289 291 299 298 297 289 281 281 275 273 290 288 289 287 286 281 285 284 284 286 279 277 278 279 280 281 281 283 284 283 282 280 279 279 278 277 274 273
296 296 296 297 298 298 299 300 300 301 301 301 296 289 283 289 299 298 293 287 287 288 288 283 283 279 287 286 285 284 285 282 282 285 285 283 275 279 280 281 281 281 281 282 281 280 280 279 279 278 277 277 276 274
296 297 298 298 298 300 299 300 300 301 300 293 285 286 293 299 291 287 282 283 284 282 284 285 284 283 290 284 283 286 283 284 279 283 282 278 274 276 279 279 279 278 278 278 279 279 278 279 277 276 275 275 274 273
298 299 300 300 300 300 300 300 300 298 294 293 294 295 294 289 285 282 281 283 281 279 282 282 286 286 288 289 285 285 282 283 278 286 281 272 273 277 277 276 276 276 276 275 276 276 276 275 274 273 272 271 270 270
300 300 300 300 300 301 301 300 299 299 298 295 291 286 287 284 278 273 275 279 278 281 285 286 285 284 287 287 284 284 279 278 285 278 272 270 275 276 276 275 274 274 274 273 272 272 272 271 271 270 268 268 268 267
298 299 300 299 299 299 300 299 299 297 293 285 282 275 277 278 275 275 272 275 283 285 286 286 285 284 285 284 284 277 280 279 277 272 271 271 273 273 273 274 271 267 269 269 268 268 268 267 266 267 267 267 267 266
297 297 296 297 299 298 296 295 294 290 283 280 277 267 269 273 276 282 284 283 284 286 285 283 283 284 282 281 280 275 275 271 274 268 265 269 271 269 267 268 267 267 268 268 268 267 267 267 267 266 266 266 266 263
297 296 294 296 296 297 295 292 290 286 281 278 275 276 277 277 277 280 282 282 285 285 285 282 277 275 279 279 276 270 272 269 265 264 267 270 265 264 265 268 268 269 269 269 269 269 268 268 267 267 267 266 265 265
294 290 294 295 295 295 294 287 285 281 278 276 272 272 272 274 276 279 280 282 285 285 282 277 270 276 280 270 268 269 262 262 264 267 268 266 268 267 267 269 270 271 269 269 270 270 269 269 270 269 268 269 269 268
289 292 294 295 293 290 287 284 280 278 275 274 272 271 275 274 276 277 279 281 283 282 277 275 276 268 263 266 264 263 269 265 265 268 268 267 268 269 270 269 270 271 271 271 272 271 271 271 271 270 270 270 269 269
291 292 295 295 291 285 281 280 280 273 272 273 274 275 273 272 274 275 278 280 280 278 277 274 268 265 264 264 262 260 261 264 269 266 269 269 271 271 271 273 273 273 273 274 274 273 273 273 272 271 270 270 268 267
295 295 295 294 292 284 280 279 281 276 271 274 275 273 273 272 273 271 274 277 278 276 270 267 264 264 265 267 265 266 266 271 272 270 270 272 274 274 274 274 273 274 273 273 271 269 269 268 267 267 267 268 266 265
292 291 293 290 286 284 280 278 277 277 277 274 275 273 271 275 272 271 271 275 271 269 265 266 267 272 270 271 273 273 272 273 268 269 271 271 273 274 273 273 273 271 269 265 264 262 263 262 263 264 258 255 254 256
289 293 287 288 282 281 279 279 278 278 277 277 276 276 272 267 267 269 273 269 267 266 267 269 270 272 273 273 273 275 275 275 274 272 271 270 269 268 267 266 267 261 262 260 262 258 259 262 261 259 254 252 256 256
292 290 284 282 276 273 273 281 274 277 271 273 275 272 268 268 270 275 266 268 266 270 271 272 274 275 275 275 275 275 275 274 271 270 268 267 266 263 265 264 263 263 262 262 264 260 258 258 257 253 252 254 253 252
288 282 277 274 273 268 275 272 277 276 275 273 271 267 267 267 272 266 264 266 267 271 272 272 273 272 272 272 269 269 270 270 268 266 267 267 265 264 265 264 263 262 262 265 262 257 256 252 253 254 250 250 248 251
277 273 274 268 271 267 267 268 269 270 266 266 265 264 266 271 262 260 262 263 266 267 269 271 270 270 266 261 264 266 269 271 268 266 263 266 265 264 264 264 262 263 262 257 255 253 251 249 249 250 251 249 251 251
269 270 268 269 270 269 269 264 263 264 263 263 264 268 268 261 259 259 265 263 265 265 266 268 268 267 267 268 267 266 266 269 268 264 265 266 265 261 259 257 257 258 258 252 252 252 255 251 250 251 250 251 251 249
264 265 273 274 272 275 269 266 269 266 261 262 264 263 260 256 257 264 267 266 267 263 268 268 270 269 267 266 266 266 266 266 266 265 264 264 263 263 261 259 258 258 255 252 251 251 251 251 251 251 250 249 251 251
265 267 264 263 263 265 258 258 257 258 262 268 266 257 256 258 261 266 265 268 269 270 269 268 268 268 265 264 263 263 262 263 262 262 262 262 260 257 255 254 255 260 251 249 249 247 248 248 248 248 247 248 248 246
262 264 265 259 259 260 262 258 259 264 267 263 257 256 260 265 265 263 268 269 269 269 265 264 261 261 261 260 258 257 255 259 257 254 252 252 251 256 254 250 250 249 248 251 257 255 254 252 251 250 249 248 249 246
263 262 260 255 256 258 258 259 259 261 266 263 265 266 264 264 267 270 268 268 267 264 263 263 259 261 258 259 256 257 254 249 251 257 254 252 254 254 252 251 250 248 245 247 248 250 256 249 252 248 247 247 245 245
264 260 259 260 259 259 261 260 262 263 258 257 258 259 260 265 267 268 267 265 266 265 263 259 255 253 256 252 251 252 253 253 249 251 254 252 249 248 247 247 246 245 245 246 246 245 247 246 244 245 245 246 247 244
257 255 258 257 259 260 257 255 257 257 256 256 258 255 256 256 256 261 265 264 264 261 256 256 258 255 250 249 250 251 255 254 250 250 250 248 247 246 247 247 244 244 245 245 244 244 245 246 245 245 245 245 246 245
258 256 257 260 259 259 260 259 258 259 259 260 260 257 252 254 256 259 263 264 262 260 257 253 253 253 252 255 255 253 251 249 248 256 253 252 249 249 244 243 243 244 245 244 243 244 245 246 245 245 244 243 245 245

GFSWCAN_sfc_thetae_078.txt.gz
Theta_e
297 295 295 295 296 296 298 297 297 297 297 297 297 298 298 299 299 296 293 295 289 284 283 286 286 282 283 283 279 283 281 283 282 280 280 280 278 280 279 281 280 279 278 275 278 276 273 292 292 285 291 293 291 291
295 295 295 296 297 297 297 297 297 297 297 297 297 298 298 298 299 298 290 294 294 286 284 287 288 289 289 288 284 285 283 284 286 281 282 283 279 278 280 276 285 276 281 279 280 280 288 289 289 292 295 292 289 287
295 295 295 296 296 297 296 296 296 296 297 297 298 298 298 299 299 298 293 293 289 286 281 281 282 288 292 292 292 284 287 289 287 290 286 283 280 283 276 277 281 286 288 285 286 289 289 289 289 288 287 287 290 291
294 294 295 296 296 296 296 296 296 296 297 298 298 298 299 299 299 299 293 293 290 284 275 279 288 286 291 291 290 290 289 291 291 290 287 282 280 287 281 285 284 285 284 283 285 289 288 288 288 286 285 285 283 284
294 295 296 296 295 295 295 296 297 297 297 298 298 299 299 300 300 298 295 294 292 283 275 278 285 288 291 289 288 289 289 287 284 284 283 280 284 286 285 287 282 285 283 280 281 285 286 285 287 287 283 282 282 280
294 295 295 295 295 295 296 296 297 297 297 298 299 300 300 300 301 292 285 292 294 288 280 274 283 285 289 288 287 287 287 286 287 287 283 284 290 288 283 279 284 285 285 286 284 286 283 283 283 283 281 281 280 279
294 295 295 295 295 295 296 297 297 297 298 299 299 300 301 301 295 289 285 291 294 291 282 279 276 284 290 287 285 285 287 288 287 285 285 282 284 290 285 280 282 284 285 285 285 286 281 281 279 281 279 278 279 277
294 294 294 295 296 296 296 297 298 298 299 299 300 301 301 301 297 293 297 296 295 289 286 278 277 278 290 282 280 284 282 287 287 286 286 284 288 288 281 281 282 283 285 285 283 283 282 281 281 280 279 278 276 274
294 294 295 296 296 296 297 297 298 299 299 300 301 301 295 293 289 292 298 297 294 286 280 281 273 269 287 287 288 288 286 281 284 285 283 285 279 280 278 279 279 280 280 283 283 282 281 279 279 278 277 275 272 271
294 295 295 296 296 297 297 298 298 299 300 301 296 289 283 289 299 297 291 286 287 289 288 281 281 275 284 285 284 284 284 280 279 282 285 283 276 279 280 280 280 279 279 282 282 280 279 278 277 277 276 275 274 273
294 295 296 296 296 297 297 298 299 300 300 292 285 286 293 298 291 288 282 282 282 280 284 284 283 280 288 283 282 284 281 281 277 281 282 278 275 277 278 277 277 278 277 278 278 278 279 278 276 275 274 274 273 272
295 295 296 297 297 298 299 299 300 298 291 292 293 295 293 288 285 282 278 282 280 278 279 282 284 286 288 288 284 284 281 282 278 284 281 272 272 277 277 276 275 275 275 275 276 275 275 275 274 273 272 270 269 269
295 297 298 298 299 299 299 300 300 298 298 295 291 285 285 283 278 272 272 277 278 276 277 285 285 286 287 287 284 284 281 276 285 276 271 268 274 275 274 274 272 273 273 272 271 271 270 269 270 269 267 266 265 266
299 300 299 300 300 300 300 300 299 298 293 285 283 278 278 278 275 272 273 273 277 283 282 285 284 285 285 282 284 280 279 280 273 269 270 270 273 273 272 272 270 266 267 267 267 267 265 265 264 263 263 262 265 265
297 299 298 299 300 300 300 299 295 291 285 281 279 267 269 273 276 282 280 283 284 286 285 283 282 283 279 279 279 277 274 274 275 271 267 270 271 270 268 268 267 266 264 264 262 264 263 263 264 264 263 264 264 263
296 295 295 296 296 297 295 292 290 286 282 279 274 273 276 273 278 281 282 283 285 285 283 282 278 279 278 279 276 271 272 269 266 262 264 266 263 263 264 266 264 265 266 266 266 267 267 265 265 265 266 266 265 264
295 291 297 296 294 293 293 287 285 281 278 274 269 271 271 271 272 279 281 282 285 285 279 277 272 276 279 269 268 267 263 263 264 264 265 263 265 264 264 267 268 268 268 268 268 268 267 268 268 269 267 267 268 266
289 292 296 295 292 290 286 284 280 278 274 273 273 272 271 271 275 277 278 280 282 281 277 275 276 268 265 266 264 261 263 262 265 265 262 262 263 263 268 267 269 270 271 271 271 271 270 269 270 268 269 269 268 268
292 293 295 294 290 285 282 280 280 274 272 273 276 276 274 273 274 276 278 280 280 280 278 274 267 264 262 262 259 257 260 262 265 264 264 264 268 269 270 271 272 272 272 271 272 271 271 272 270 269 269 269 266 266
295 295 294 294 291 282 279 278 281 276 272 274 275 274 273 271 273 271 275 278 278 275 270 266 263 262 267 267 264 265 264 270 271 269 269 271 272 273 273 273 272 274 272 271 269 267 267 266 266 265 265 266 265 262
291 292 292 290 285 283 280 278 277 277 277 274 275 273 271 274 271 270 271 275 271 269 264 265 271 271 270 268 272 272 272 272 267 267 269 270 273 273 273 272 272 271 268 264 263 261 262 261 262 262 256 253 252 255
288 292 285 286 282 281 279 279 277 277 276 277 276 275 270 265 266 268 273 268 267 266 265 267 272 272 272 272 272 274 274 274 273 271 270 270 269 269 268 265 266 260 260 258 261 258 258 261 260 258 254 252 255 255
292 289 283 281 275 271 272 281 273 276 269 273 274 271 268 266 269 274 266 267 266 268 271 272 274 275 275 274 274 274 274 273 270 269 267 266 265 262 264 263 262 262 260 261 263 260 257 258 256 252 251 252 251 251
288 281 277 274 273 267 273 269 277 275 274 271 269 266 266 265 270 265 262 264 266 270 272 272 272 272 272 271 268 268 269 269 266 264 265 266 264 263 263 263 262 261 261 263 261 256 255 250 252 253 249 249 247 248
277 273 273 267 271 266 265 265 268 269 264 264 264 263 265 268 261 259 261 262 265 266 268 269 269 269 265 263 266 266 268 270 268 265 262 266 264 264 263 262 261 261 260 255 254 252 250 247 247 248 250 247 251 250
269 269 268 268 270 267 268 264 262 262 262 262 263 268 265 260 258 258 264 260 264 261 263 266 267 267 267 268 266 265 266 269 268 263 265 266 264 260 257 257 257 258 257 252 251 250 253 251 250 251 250 251 250 247
264 264 271 272 271 272 265 264 268 264 260 261 263 261 259 256 256 263 265 264 264 261 266 267 269 268 267 266 266 265 266 266 265 264 263 263 262 261 259 256 257 258 255 252 249 250 251 250 250 250 250 248 247 248
267 268 264 263 263 264 256 256 256 257 260 267 265 256 256 257 260 263 265 269 268 268 266 266 266 267 266 264 263 262 261 262 261 261 261 261 259 255 254 254 257 259 250 247 248 246 247 248 248 247 246 247 247 248
262 263 266 260 262 260 260 257 258 264 267 263 257 256 260 264 263 262 268 268 267 267 264 262 259 260 260 259 257 257 258 259 257 254 252 251 250 255 251 248 248 247 246 249 255 253 250 250 249 247 247 246 246 244
263 262 260 257 257 257 257 259 258 260 265 262 263 264 263 262 266 268 268 267 265 263 261 261 257 260 258 259 255 256 251 247 251 256 254 252 255 251 249 249 248 245 244 246 247 249 255 248 250 246 245 245 243 243
263 259 257 258 256 258 259 258 259 260 256 254 254 256 257 262 266 267 266 266 264 263 262 257 255 252 258 255 252 252 254 253 249 251 252 251 249 247 247 246 244 242 243 244 244 244 245 244 243 243 244 245 245 243
255 253 256 255 257 258 257 253 255 257 257 258 258 254 256 258 258 261 264 264 264 261 258 258 257 255 250 248 248 249 255 254 254 252 252 249 246 245 245 245 242 243 243 243 243 243 243 244 244 243 243 243 244 243
254 253 253 255 256 255 255 256 257 258 259 260 258 253 251 254 257 259 262 262 262 261 257 251 251 252 252 254 255 254 255 253 251 256 252 251 248 248 243 241 242 243 244 243 242 242 244 244 244 243 243 242 243 244

GFSWCAN_sfc_thetae_084.txt.gz
Theta_e
297 297 296 296 295 295 296 296 297 298 298 299 298 298 298 299 299 299 297 299 292 287 289 289 290 287 286 285 282 287 285 285 284 281 282 282 284 285 284 285 284 284 283 283 284 280 277 293 293 287 290 293 291 288
297 297 297 297 296 295 296 296 297 298 298 298 298 298 298 298 299 299 294 298 296 289 288 294 294 295 293 292 287 288 285 283 285 283 283 285 284 286 285 281 290 284 286 286 286 286 290 290 289 291 291 290 289 287
297 296 297 296 296 295 296 297 297 298 298 298 297 297 297 298 299 298 296 296 292 287 288 289 290 294 296 295 296 285 287 289 286 290 285 285 282 287 282 283 285 288 290 288 289 287 287 288 288 288 287 286 286 287
296 296 296 296 296 296 296 297 297 298 297 297 297 297 297 298 298 299 296 297 293 289 283 288 293 291 295 295 294 293 291 292 292 289 286 285 284 289 285 286 285 288 289 285 287 286 286 285 286 287 286 285 284 284
295 296 296 296 295 296 296 297 297 297 296 297 297 297 298 298 299 300 299 298 299 290 284 287 293 293 294 294 293 293 291 290 288 287 287 285 291 288 291 289 286 287 283 283 283 285 286 283 285 286 283 283 284 282
296 296 296 296 296 296 296 296 296 296 296 296 297 298 298 298 299 297 287 295 299 297 287 284 291 290 293 293 292 291 292 291 289 288 288 291 292 289 285 284 284 285 286 286 284 285 284 284 284 285 283 283 282 281
295 295 295 295 295 296 297 296 296 296 296 297 298 298 298 299 297 291 290 296 296 295 287 284 286 291 292 292 293 292 292 292 291 290 288 289 290 291 287 283 283 285 285 285 286 286 282 283 281 282 282 282 281 281
295 294 294 295 295 296 296 296 296 296 296 297 297 298 299 299 297 293 297 296 296 290 291 283 284 287 292 289 288 293 289 290 291 291 291 288 291 289 283 282 283 285 285 284 285 285 284 283 283 282 282 282 280 279
294 294 294 295 295 296 296 296 296 296 297 297 298 298 297 293 289 292 297 296 297 293 286 283 282 282 292 289 291 291 292 285 293 287 288 290 286 283 281 281 281 282 282 283 284 283 283 281 281 281 280 279 278 276
294 294 294 295 295 295 295 296 296 296 297 297 296 290 284 291 298 296 291 288 289 291 288 283 289 284 289 287 287 287 288 286 281 285 288 285 283 281 282 282 282 282 283 285 282 280 281 280 280 280 279 279 279 277
293 294 295 295 295 295 295 296 296 297 296 293 286 286 293 298 294 290 283 283 284 281 286 286 288 286 291 283 285 289 286 285 278 285 283 284 280 279 280 279 281 281 282 282 283 284 284 282 280 279 278 278 278 277
294 294 295 295 295 295 295 296 296 295 292 291 293 295 293 289 287 283 280 282 280 280 286 283 285 288 289 292 288 287 282 283 278 288 283 280 277 279 279 278 279 279 280 280 281 280 280 279 279 278 277 276 274 273
294 294 294 295 295 295 295 296 297 296 296 296 291 286 286 285 280 279 276 278 281 286 287 286 284 287 290 289 287 286 280 280 288 283 282 278 278 278 278 277 277 278 277 277 276 277 277 276 276 275 272 272 272 270
293 294 294 295 295 296 296 297 297 297 292 287 286 281 283 280 282 284 285 287 289 288 287 288 287 286 287 285 286 282 286 285 281 279 278 278 277 277 277 276 275 273 273 273 273 273 272 271 270 271 271 271 270 269
294 294 294 294 295 296 296 297 297 295 286 285 286 282 280 285 285 285 287 287 287 290 290 287 287 288 286 285 285 283 279 278 280 281 279 278 277 275 274 274 272 271 271 271 272 271 271 271 271 271 271 271 269 268
293 293 292 294 295 296 297 297 293 288 286 282 281 280 282 283 282 283 284 284 288 290 291 291 285 283 283 284 281 280 279 279 280 278 277 277 274 273 273 273 272 273 273 273 272 272 271 270 271 271 271 270 269 269
295 291 297 298 296 296 297 288 287 284 282 280 280 281 282 283 284 284 286 286 287 289 286 287 281 281 284 281 279 281 281 279 276 276 277 276 274 272 272 272 272 273 273 273 272 273 272 272 272 272 271 271 272 271
290 297 299 299 297 291 287 287 285 282 277 281 281 280 281 281 282 283 284 284 286 286 287 283 286 281 281 279 281 279 276 275 277 277 276 275 273 273 274 274 273 274 274 274 274 274 273 273 274 274 273 273 273 272
292 294 295 296 293 288 283 283 286 278 279 280 280 281 282 280 281 283 284 283 285 286 285 283 281 282 282 280 279 277 276 277 275 275 274 274 275 274 274 275 275 275 275 275 276 277 277 276 276 277 276 275 276 275
293 293 293 292 292 285 281 281 286 281 279 280 282 281 281 281 281 282 283 282 282 282 282 280 281 280 280 279 280 279 279 278 276 274 273 275 276 275 276 276 277 277 277 276 276 275 276 275 275 275 276 275 276 275
294 292 291 291 287 287 283 282 281 281 281 280 280 281 279 281 281 281 281 280 281 278 279 279 278 277 277 277 279 279 278 279 278 279 277 275 277 278 277 278 278 278 277 277 276 274 275 275 274 274 275 274 273 274
292 291 289 289 284 284 282 284 282 283 281 280 280 280 279 279 279 279 279 279 278 278 279 279 278 277 276 277 278 279 279 278 278 278 278 277 277 277 277 278 278 277 277 277 277 276 275 274 274 274 274 273 270 273
292 291 287 284 280 280 278 285 279 280 277 277 279 277 277 278 278 279 277 277 276 277 278 278 278 279 278 278 278 278 278 278 278 278 278 278 278 278 278 277 278 276 275 274 275 275 274 267 270 272 272 272 272 272
288 282 279 279 280 276 280 278 281 278 278 277 276 273 274 277 277 277 275 276 275 277 277 276 278 277 277 277 277 277 277 279 277 277 278 277 276 275 276 275 275 275 276 275 274 274 272 272 265 271 270 270 270 269
280 275 278 275 278 276 275 276 275 276 273 274 273 273 274 276 274 273 273 274 275 276 276 277 278 279 278 276 276 275 276 278 277 275 276 277 275 274 273 273 273 272 273 274 272 272 271 270 269 269 269 269 267 267
271 272 274 275 276 276 275 273 274 273 274 272 272 275 276 275 271 271 273 274 275 276 276 277 277 276 276 277 275 275 275 277 277 275 273 274 275 275 273 271 271 271 272 273 272 271 269 268 268 266 267 266 262 264
271 270 273 274 275 276 274 275 275 276 273 272 273 272 273 270 270 271 273 274 276 277 278 279 279 278 276 274 273 273 273 273 274 273 272 271 271 272 274 273 270 271 270 269 269 268 268 267 267 266 266 267 266 265
271 271 270 269 269 271 268 269 269 268 270 272 273 269 270 269 269 271 272 274 275 275 274 274 276 276 275 272 271 270 269 269 268 269 270 269 269 268 268 268 268 265 267 267 267 267 267 267 266 266 265 265 264 265
269 271 271 263 266 267 266 267 268 269 270 272 270 267 267 268 269 270 272 273 274 274 272 270 269 270 268 268 269 271 271 271 269 267 267 268 267 267 267 267 267 267 267 268 263 264 264 265 265 265 264 264 264 263
268 271 267 264 263 264 266 268 268 269 269 270 271 269 268 269 270 272 274 274 274 273 273 272 270 271 269 268 266 266 266 267 268 271 270 269 269 267 267 266 266 265 266 266 266 266 262 265 263 264 263 263 264 263
269 270 266 266 265 267 268 268 269 269 269 269 268 269 267 269 270 270 270 271 270 270 270 269 268 269 269 268 269 268 267 265 263 265 267 267 266 266 265 264 264 264 265 265 264 264 263 263 263 262 261 260 259 259
268 265 265 264 265 267 269 270 270 269 270 270 268 268 267 269 267 268 267 270 270 270 268 269 268 267 267 266 266 265 265 265 265 265 265 265 264 263 263 262 261 263 263 263 263 262 261 260 261 260 260 259 258 257
265 266 266 266 266 266 267 268 268 267 269 268 267 266 266 268 265 267 268 266 269 270 268 267 266 265 264 265 265 264 264 264 263 262 261 260 260 261 262 263 263 262 261 262 262 261 260 259 259 258 258 257 256 256

GFSWCAN_sfc_thetae_087.txt.gz
Theta_e
299 299 299 298 298 298 297 297 297 297 298 299 299 298 298 299 299 300 298 301 296 291 292 293 292 287 288 288 283 288 287 287 286 282 283 283 283 286 285 286 285 284 283 283 285 281 279 294 294 288 289 293 291 288
298 298 298 298 297 296 296 297 297 298 298 298 299 299 299 299 299 299 294 302 299 290 291 297 296 297 294 292 289 290 287 285 287 283 284 284 284 287 285 281 290 285 288 286 288 285 291 292 289 291 291 287 288 287
298 297 297 297 297 296 296 297 297 298 298 299 299 298 298 298 299 298 298 298 296 289 291 293 293 296 299 298 299 287 289 290 287 291 286 286 284 288 283 283 286 290 293 289 289 287 287 289 291 290 288 286 287 288
297 297 297 297 297 296 297 297 297 298 298 298 298 298 298 298 298 298 296 299 298 293 286 290 297 294 298 298 297 296 293 294 291 290 286 286 286 290 286 288 286 289 291 288 285 286 288 288 288 288 287 286 286 285
297 297 297 297 297 296 297 297 297 298 298 298 297 297 297 298 298 300 300 300 299 292 286 289 295 297 297 297 295 295 294 292 289 286 287 286 290 291 292 291 287 287 284 283 282 286 287 284 287 287 284 284 285 284
296 297 296 297 297 297 297 297 297 297 297 297 297 297 298 298 299 296 289 300 301 299 289 285 294 292 295 296 295 294 294 292 290 289 288 292 294 290 286 284 285 286 287 288 285 286 285 285 286 287 284 284 284 283
295 295 296 296 296 297 297 297 297 297 297 297 297 297 298 299 299 294 291 295 300 299 288 285 288 293 294 295 297 294 294 292 291 290 290 289 290 293 288 283 283 285 286 287 288 287 284 285 283 285 284 284 284 283
296 296 296 296 296 296 296 297 297 297 297 297 297 297 298 299 297 294 299 297 298 291 291 284 286 289 295 289 288 294 290 290 290 290 292 289 291 292 285 283 283 285 285 286 286 287 285 285 285 285 286 285 283 281
295 296 296 296 296 296 296 297 297 296 296 297 297 298 297 294 289 293 297 297 298 292 287 286 284 283 293 290 291 292 292 286 294 290 289 290 287 284 283 283 284 284 285 284 285 285 285 284 283 283 283 283 280 278
295 295 295 295 296 296 297 297 297 296 297 297 297 291 285 291 298 295 291 288 289 291 290 285 291 284 290 288 287 289 290 286 284 288 292 285 284 283 284 284 285 284 285 286 284 283 283 282 283 282 282 282 281 280
294 295 294 296 295 296 296 297 297 297 297 294 287 287 295 298 294 291 285 285 286 282 287 287 289 287 293 285 285 291 287 286 280 287 285 285 283 281 283 282 284 284 285 285 285 286 285 284 282 280 280 280 280 279
294 294 294 295 295 296 296 296 297 296 294 293 292 294 293 289 287 284 282 284 282 282 289 286 287 291 292 293 290 290 285 285 279 290 284 283 280 281 282 281 282 283 283 282 283 282 282 281 281 280 279 277 276 275
294 294 295 296 296 295 295 296 297 297 296 294 291 286 286 287 282 280 277 280 283 288 290 288 285 289 292 293 288 288 282 282 291 284 284 281 281 281 281 281 280 281 280 280 279 280 279 278 278 277 274 274 274 272
294 294 295 295 296 296 296 296 297 296 290 286 286 282 283 281 284 286 287 289 292 291 290 289 289 289 290 286 288 282 287 287 282 281 281 282 280 279 279 279 278 276 276 277 276 276 275 274 274 274 274 273 272 270
294 295 295 295 296 296 296 296 297 294 287 285 288 283 283 288 288 288 290 290 291 292 291 290 291 289 286 285 287 285 281 280 283 282 281 281 279 278 277 277 275 274 274 275 275 274 274 274 274 273 273 272 271 271
294 294 294 295 295 296 296 296 293 289 288 285 285 282 284 285 285 285 286 286 291 291 294 293 287 285 285 286 283 282 281 281 281 281 280 279 278 277 276 276 276 276 276 275 275 275 274 274 274 273 273 272 272 271
294 291 295 295 296 296 295 288 287 285 285 283 282 284 286 287 286 286 287 288 289 291 287 289 283 283 287 283 281 286 283 281 280 280 281 280 277 276 275 275 275 276 276 276 275 275 275 275 274 274 273 273 274 273
290 293 294 295 296 292 287 287 287 285 281 283 283 282 284 285 284 284 286 288 288 290 290 286 290 283 282 281 284 282 280 280 281 279 279 278 277 276 277 276 276 277 276 276 276 275 275 275 276 277 275 275 275 274
292 295 295 296 293 289 286 285 288 282 281 282 282 284 284 284 284 286 288 287 288 292 292 289 285 285 286 285 283 281 280 279 278 278 277 277 277 277 277 277 277 277 277 277 277 278 278 278 279 279 279 277 277 278
296 298 297 295 295 288 283 283 291 284 282 283 284 283 283 283 284 285 286 285 286 287 287 286 285 284 284 282 285 283 282 281 279 277 276 277 277 277 277 278 278 278 278 278 278 278 278 278 278 278 278 277 277 277
290 291 293 293 289 288 286 285 284 284 283 282 283 284 282 283 283 284 284 286 285 286 285 285 282 280 281 283 284 283 282 282 281 281 278 276 278 279 278 280 279 280 279 278 278 277 277 278 278 278 277 277 276 276
288 291 290 291 286 286 285 288 285 286 283 282 282 284 282 282 282 283 285 284 284 282 283 284 282 281 280 280 282 283 283 282 282 281 280 279 278 278 278 279 279 279 279 279 279 278 278 278 277 276 276 276 272 275
292 291 287 286 282 283 280 288 282 283 279 280 283 281 281 281 283 284 282 283 280 281 283 282 282 283 281 281 281 281 281 281 281 280 279 280 281 282 280 280 280 279 277 278 279 278 277 270 273 275 275 274 275 274
290 285 283 282 283 278 283 281 284 281 281 280 280 277 279 281 282 281 280 281 279 280 280 280 281 280 280 279 280 280 281 282 280 280 280 279 278 278 279 279 279 279 279 278 277 277 276 276 270 274 274 272 272 271
284 278 281 277 282 279 278 278 279 279 277 278 277 277 278 281 279 279 279 278 277 278 278 280 281 281 280 280 279 279 281 281 280 278 280 280 279 278 277 277 276 276 277 277 275 275 275 274 273 272 271 271 270 270
276 276 278 279 279 279 279 276 277 277 278 277 277 280 280 279 276 277 278 278 278 278 278 279 280 280 279 280 278 278 279 282 281 278 278 279 279 278 276 274 274 274 276 276 275 274 273 272 270 269 269 270 266 266
275 274 277 279 280 280 279 280 281 280 276 276 277 277 277 274 276 275 276 278 279 281 282 282 281 281 279 278 278 278 278 278 279 277 276 275 275 276 277 276 273 273 274 273 272 271 270 270 269 268 269 270 270 269
275 276 273 275 276 278 275 276 275 274 276 278 279 275 275 275 274 274 276 277 280 280 280 280 281 280 279 277 276 275 274 274 273 273 273 273 273 273 272 272 270 269 270 270 270 270 270 269 269 268 268 267 267 268
274 276 275 268 272 273 272 273 274 274 274 277 276 273 271 272 273 274 275 277 278 278 276 274 274 275 275 276 276 276 276 275 273 271 271 270 270 269 272 271 271 271 272 271 266 267 267 267 267 267 266 267 267 267
272 276 272 268 268 269 271 272 272 273 274 274 274 272 271 271 273 276 277 277 278 277 277 276 275 275 273 272 270 270 272 273 274 274 273 271 272 271 271 270 269 269 270 270 269 269 265 267 268 268 266 266 266 265
275 275 272 272 269 271 271 272 273 273 274 273 275 274 271 271 273 273 274 275 276 276 275 275 275 275 273 272 272 271 269 270 269 271 272 271 271 270 269 268 269 269 269 268 268 267 265 266 266 265 265 263 263 262
274 271 270 268 268 271 273 274 274 273 273 272 271 272 272 273 270 272 271 274 275 275 273 274 273 272 272 271 271 271 270 269 269 269 269 269 268 268 267 267 267 268 267 267 266 266 264 263 264 263 263 262 261 260
271 271 272 270 269 269 271 272 271 270 272 271 271 273 272 273 268 270 272 271 274 274 272 271 271 271 270 269 269 269 268 267 265 265 264 264 264 266 267 267 267 266 265 265 265 265 263 262 262 261 261 260 259 258